Home   Weather   Oberlin   Past weeks
Flag for USA

Past Weather in Oberlin, Ohio, USA — Yesterday and Last 2 Weeks

Now
42 °F

Clear.


Feels Like: 42 °F
Forecast: 58 / 44 °F
Wind: No wind

Location: Lorain County Regional Airport

Current Time: May 21, 2019 at 5:21:50 am

Latest Report: May 21, 2019 at 4:53 am


Visibility: 10 mi

Pressure: 30.16 "Hg

Humidity: 79%

Dew Point: 36 °F

Location of OberlinLocation

Past Weather in Oberlin — Graph

°F

Oberlin Temperature Yesterday

Maximum temperature yesterday: 65 °F (at 12:53 am)
Minimum temperature yesterday: 51 °F (at 11:37 pm)
Average temperature yesterday: 60 °F

High & Low Weather Summary for the Past Weeks

 TemperatureHumidityPressure
High84 °F (May 19, 2:53 pm)86% (May 11, 3:53 am)30.26 "Hg (May 11, 3:53 am)
Low39 °F (May 11, 5:53 am)28% (May 15, 5:53 pm)29.70 "Hg (May 13, 3:53 am)
Average57 °F66%29.94 "Hg
* Reported May 6 3:53 am — May 21 3:53 am, Oberlin. Weather by CustomWeather, © 2019

Note: Actual official high and low records may vary slightly from our data, if they occured in-between our weather recording intervals... More about our weather records

Advertising

Oberlin Weather History for the Previous 24 Hours

Scroll right to see more
 ConditionsComfort  
Time TempWeatherWind HumidityBarometerVisibility
3:53 am
Tue, May 21
45 °FClear.10 mph71%30.13 "Hg10 mi
2:53 am47 °FPassing clouds.8 mph66%30.12 "Hg10 mi
1:53 am48 °FMostly cloudy.10 mph66%30.13 "Hg10 mi
12:53 am47 °FOvercast.8 mph77%30.13 "Hg10 mi
12:24 am47 °FOvercast.18 mph80%30.13 "Hg9 mi
12:09 am48 °FLight rain. Mostly cloudy.17 mph80%30.12 "Hg8 mi
12:01 am49 °FOvercast.17 mph77%30.12 "Hg9 mi
11:37 pm
Mon, May 20
51 °FMostly cloudy.10 mph66%30.11 "Hg10 mi
10:53 pm52 °FOvercast.9 mph61%30.09 "Hg10 mi
9:53 pm52 °FOvercast.14 mph59%30.09 "Hg10 mi
8:53 pm52 °FOvercast.14 mph61%30.09 "Hg10 mi
7:53 pm54 °FOvercast.13 mph59%30.06 "Hg10 mi
6:53 pm56 °FOvercast.17 mph58%30.03 "Hg10 mi
6:01 pm56 °FMore clouds than sun.22 mph60%30.03 "Hg10 mi
5:05 pm58 °FMostly cloudy.20 mph60%30.00 "Hg10 mi
4:53 pm59 °FCloudy.12 mph62%29.98 "Hg10 mi
4:00 pm58 °FCloudy.15 mph65%29.99 "Hg10 mi
3:30 pm58 °FMostly cloudy.16 mph62%29.98 "Hg10 mi
3:22 pm59 °FCloudy.16 mph62%29.98 "Hg10 mi
2:53 pm59 °FMostly cloudy.14 mph60%29.96 "Hg10 mi
1:53 pm60 °FMore clouds than sun.16 mph60%29.95 "Hg10 mi
12:53 pm59 °FMostly cloudy.22 mph62%29.94 "Hg10 mi
11:53 am63 °FOvercast.16 mph52%29.91 "Hg10 mi
10:53 am62 °FMore clouds than sun.14 mph58%29.90 "Hg10 mi
9:53 am62 °FBroken clouds.17 mph60%29.88 "Hg10 mi
8:53 am61 °FPartly sunny.16 mph67%29.87 "Hg10 mi
7:53 am62 °FOvercast.20 mph70%29.85 "Hg10 mi
7:38 am63 °FBroken clouds.13 mph73%29.85 "Hg10 mi
7:18 am62 °FMostly cloudy.12 mph75%29.85 "Hg10 mi
6:53 am62 °FOvercast.13 mph78%29.83 "Hg10 mi
5:53 am62 °FMostly cloudy.9 mph78%29.81 "Hg10 mi
5:03 am62 °FMostly cloudy.10 mph78%29.81 "Hg10 mi
Weather by CustomWeather, © 2019

See weather overview